[[{"header":{"parameterUnit":"m.s-1","parameterCategory":1,"la1":30.2991,"la2":30.254,"lo1":-89.0895,"lo2":-89.0444,"dy":0.0017,"dx":0.0017,"nx":28,"ny":28,"refTime":"2024-02-01T03:00:00:Z","depth":0,"parameterNumber":2,"parameterNumberName":"U-component_of_WINDS"},"data":[0,0,0,0,0,0,0,0,0,0,0,0,0,0,0,0,0,0,0,0,0,0,0,0,0,0,0,0,0,0,0,0,0,0,0,0,0,0,0,0,0,0,0,0,0,0,0,0,0,0,0,0,0,0,0,0,0,0,0.9373,0.9374,0,0.945,0.9451,0.9452,0.9486,0.9486,0.9486,0.9486,0.9566,0.9568,0.957,0,0,0,0,0,0,0,0,0,0,0,0,0,0.9259,0.926,0.9373,0.9374,0.9375,0.945,0.9451,0.9452,0.9486,0.9486,0.9486,0.9486,0.9565,0.9568,0.9571,0,0,0,0,0,0,0,0,0,0,0,0,0,0.9319,0.9261,0.9373,0.9401,0.9404,0.945,0.9451,0.9453,0.9486,0.9486,0.9486,0.9486,0.9564,0.9568,0.9571,0.9595,0,0,0.9581,0.9583,0,0,0,0,0,0,0,0,0.9316,0.9323,0.9396,0.9399,0.9403,0.9458,0.944,0.95,0.9486,0.9455,0.9486,0.9486,0.953,0.9537,0.9551,0.9599,0.9602,0.9582,0.9584,0.9585,0.9586,0,0,0,0,0,0,0,0.9311,0.932,0.9404,0.9397,0.9401,0.9411,0.9419,0.9452,0.9493,0.9458,0.946,0.9469,0.9532,0.9548,0.9554,0.9603,0.9581,0.9584,0.9586,0.9588,0.9678,0.9678,0,0,0,0,0,0,0.9302,0.9317,0.9401,0.9406,0.9358,0.9413,0.9422,0.9441,0.9492,0.95,0.9469,0.947,0.9542,0.955,0.9556,0.959,0.9585,0.9588,0.959,0.9677,0.9678,0.9678,0,0,0,0,0,0,0.93,0.931,0.9398,0.9362,0.9374,0.9415,0.9435,0.9442,0.9458,0.9501,0.9509,0.9477,0.9543,0.9552,0.9586,0.9593,0.959,0.9593,0.9677,0.9677,0.9678,0.9655,0,0,0,0,0,0,0.9296,0.9308,0.9317,0.9362,0.9376,0.9425,0.9436,0.9444,0.9464,0.9466,0.9511,0.9518,0.9543,0.9581,0.9589,0.9598,0.9595,0.9676,0.9677,0.9678,0.9656,0.9655,0.9655,0,0,0,0,0,0.9292,0.9307,0.9317,0.9327,0.9387,0.9425,0.9433,0.9461,0.9464,0.9474,0.9502,0.9517,0.9591,0.9584,0.9594,0.9603,0.9676,0.9677,0.9678,0.9656,0.9655,0.9655,0,0,0,0,0,0,0.9261,0.9313,0.9325,0.9355,0.9385,0.9431,0.9443,0.9459,0.949,0.9491,0.9525,0.9535,0.9566,0.9588,0.9579,0.9631,0.9635,0.9638,0.9615,0.9615,0.9614,0.9608,0.9598,0,0,0,0,0,0.9258,0.9284,0.9328,0.935,0.9365,0.9402,0.9419,0.9439,0.9472,0.9485,0.9515,0.9547,0.9579,0.9598,0.9628,0.9659,0.9671,0.9671,0.9671,0.967,0.9672,0.9693,0.9694,0.9681,0.9681,0.9681,0,0,0.9251,0.9283,0.9297,0.9345,0.9371,0.9398,0.9412,0.944,0.9461,0.9489,0.9523,0.9547,0.9586,0.9619,0.9635,0.9638,0.9679,0.9671,0.967,0.9673,0.9694,0.9695,0.9696,0.9681,0.9681,0.9681,0,0,0.9254,0.9279,0.9302,0.9328,0.9367,0.9392,0.9397,0.9441,0.9458,0.9493,0.9516,0.9542,0.9594,0.9621,0.9642,0.9658,0.9673,0.9667,0.9664,0.9684,0.9685,0.9686,0.9693,0.9695,0.9669,0.9669,0.9669,0,0.924,0.9281,0.9311,0.9338,0.936,0.9387,0.9411,0.9436,0.9483,0.9498,0.9501,0.9568,0.9596,0.9637,0.9641,0.9657,0.9665,0.9661,0.9682,0.9683,0.9685,0.9692,0.9695,0.9668,0.9668,0.9668,0.9668,0,0.9264,0.9293,0.9306,0.9352,0.9375,0.94,0.9435,0.9456,0.9474,0.9499,0.9536,0.957,0.9609,0.9621,0.9638,0.9665,0.9666,0.9675,0.968,0.9685,0.9692,0.9695,0.9666,0.9667,0.9667,0.9667,0,0,0.9247,0.9311,0.9315,0.9338,0.9385,0.9408,0.9436,0.9474,0.9492,0.9524,0.955,0.9594,0.9604,0.9627,0.9648,0.9666,0.9679,0.9673,0.9675,0.9674,0.9713,0.9706,0.9709,0.969,0.969,0.9691,0.971,0,0.9256,0.9306,0.9335,0.9374,0.9402,0.943,0.9455,0.9488,0.9512,0.9541,0.9569,0.9601,0.961,0.9624,0.9643,0.9673,0.9687,0.9672,0.9715,0.9716,0.9704,0.9713,0.9705,0.9722,0.9713,0.9714,0.9714,0,0.9273,0.9305,0.9347,0.9393,0.9406,0.9428,0.9467,0.9493,0.9532,0.9549,0.9577,0.9598,0.9631,0.9634,0.968,0.9669,0.9689,0.9707,0.9708,0.9713,0.9715,0.9719,0.9728,0.9731,0.9719,0.9718,0.9718,0,0.9258,0.9312,0.9345,0.9363,0.9417,0.9432,0.9456,0.9494,0.9516,0.9551,0.9566,0.9604,0.9625,0.9655,0.9688,0.9686,0.9732,0.9736,0.9748,0.9747,0.9756,0.9755,0.9769,0.9768,0.9768,0.9767,0.9767,0,0.9265,0.9289,0.9339,0.9359,0.9389,0.9423,0.9452,0.9478,0.9512,0.9539,0.9566,0.9591,0.9632,0.9663,0.9688,0.9724,0.9733,0.9749,0.9756,0.9747,0.9745,0.976,0.976,0.9768,0.9768,0.9768,0.9768,0,0.9252,0.9286,0.9324,0.9373,0.9386,0.9406,0.9449,0.9471,0.9498,0.9532,0.9542,0.9585,0.9623,0.9659,0.9709,0.9726,0.9763,0.9771,0.9749,0.9753,0.9763,0.9762,0.9788,0.9794,0.9787,0.9787,0.9787,0,0.9254,0.9274,0.9326,0.9346,0.937,0.9401,0.9425,0.946,0.9484,0.9531,0.9548,0.9587,0.9621,0.9681,0.9717,0.9757,0.9766,0.9773,0.9772,0.9764,0.9768,0.9767,0.977,0.9772,0.9772,0.9772,0.9772,0,0.9255,0.9272,0.9304,0.9344,0.9371,0.9403,0.9437,0.9452,0.9495,0.952,0.9559,0.9586,0.9638,0.9678,0.9722,0.9748,0.9768,0.9772,0.9777,0.9768,0.9755,0.9764,0.9749,0.9771,0.9771,0.9771,0.9771,0.9771,0.9251,0.9271,0.9312,0.9348,0.9377,0.9408,0.9432,0.9463,0.9496,0.9541,0.9561,0.9601,0.9643,0.9704,0.973,0.9763,0.9767,0.9774,0.9776,0.9777,0.9776,0.975,0.9771,0.9771,0.9771,0.9771,0.9771,0,0.9255,0.9283,0.9316,0.9362,0.9391,0.9408,0.9446,0.947,0.9505,0.9541,0.9575,0.9621,0.9661,0.9702,0.9744,0.9763,0.9773,0.9773,0.9772,0.9778,0.9769,0.9761,0.9764,0.9764,0.9764,0.9764,0.9764,0.9764,0.926,0.9295,0.9317,0.9368,0.9397,0.9436,0.9457,0.9487,0.9517,0.9568,0.9601,0.9627,0.9667,0.9713,0.9751,0.9762,0.9777,0.9774,0.9788,0.9779,0.9779,0.9779,0.9772,0.9777,0.9777,0.9795,0.9795,0.9795]},{"header":{"parameterUnit":"m.s-1","parameterCategory":1,"la1":30.2991,"la2":30.254,"lo1":-89.0895,"lo2":-89.0444,"dy":0.0017,"dx":0.0017,"nx":28,"ny":28,"refTime":"2024-02-01T03:00:00:Z","depth":0,"parameterNumber":3,"parameterNumberName":"V-component_of_WINDS"},"data":[0,0,0,0,0,0,0,0,0,0,0,0,0,0,0,0,0,0,0,0,0,0,0,0,0,0,0,0,0,0,0,0,0,0,0,0,0,0,0,0,0,0,0,0,0,0,0,0,0,0,0,0,0,0,0,0,0,0,-3.391,-3.391,0,-3.3873,-3.3872,-3.3872,-3.3913,-3.3915,-3.3916,-3.3918,-3.3877,-3.3874,-3.3872,0,0,0,0,0,0,0,0,0,0,0,0,0,-3.4016,-3.4014,-3.391,-3.391,-3.3909,-3.3873,-3.3872,-3.3872,-3.3913,-3.3915,-3.3916,-3.3918,-3.3877,-3.3874,-3.3871,0,0,0,0,0,0,0,0,0,0,0,0,0,-3.3973,-3.4013,-3.391,-3.3925,-3.3926,-3.3873,-3.3872,-3.3872,-3.3912,-3.3915,-3.3917,-3.3919,-3.3878,-3.3875,-3.3871,-3.38,0,0,-3.3859,-3.3858,0,0,0,0,0,0,0,0,-3.3975,-3.3969,-3.3924,-3.3924,-3.3925,-3.39,-3.3895,-3.3848,-3.3912,-3.3917,-3.3918,-3.392,-3.3882,-3.3878,-3.3866,-3.3798,-3.3796,-3.3859,-3.3857,-3.3855,-3.3854,0,0,0,0,0,0,0,-3.3978,-3.3971,-3.3895,-3.3923,-3.3924,-3.3934,-3.393,-3.3886,-3.3887,-3.3917,-3.392,-3.3915,-3.3883,-3.387,-3.3865,-3.3796,-3.3859,-3.3856,-3.3853,-3.3852,-3.3669,-3.3666,0,0,0,0,0,0,-3.398,-3.3973,-3.3897,-3.3894,-3.3957,-3.393,-3.3926,-3.3906,-3.3888,-3.3887,-3.3913,-3.3917,-3.3875,-3.387,-3.3864,-3.378,-3.3855,-3.3851,-3.3849,-3.3671,-3.3668,-3.3665,0,0,0,0,0,0,-3.3982,-3.3973,-3.3898,-3.3935,-3.3926,-3.3925,-3.3902,-3.3904,-3.389,-3.3885,-3.3885,-3.3899,-3.3877,-3.3869,-3.3816,-3.3779,-3.385,-3.3846,-3.3674,-3.367,-3.3667,-3.3611,0,0,0,0,0,0,-3.3985,-3.3973,-3.3946,-3.3934,-3.3924,-3.3851,-3.39,-3.3901,-3.3884,-3.3889,-3.3872,-3.3871,-3.3878,-3.3822,-3.3812,-3.3775,-3.3843,-3.3678,-3.3673,-3.3668,-3.3616,-3.3605,-3.3596,0,0,0,0,0,-3.3988,-3.3931,-3.3945,-3.3935,-3.389,-3.3848,-3.3843,-3.3852,-3.3881,-3.3853,-3.385,-3.3872,-3.3785,-3.3816,-3.3806,-3.3766,-3.368,-3.3674,-3.3668,-3.362,-3.3607,-3.3597,0,0,0,0,0,0,-3.3938,-3.393,-3.3945,-3.3882,-3.3866,-3.3855,-3.3821,-3.3839,-3.3813,-3.3819,-3.3832,-3.3828,-3.3771,-3.3764,-3.3798,-3.3698,-3.3737,-3.3729,-3.3704,-3.3692,-3.3682,-3.3684,-3.384,0,0,0,0,0,-3.392,-3.3887,-3.3882,-3.3827,-3.3818,-3.3821,-3.3803,-3.3813,-3.3796,-3.3789,-3.3782,-3.3764,-3.3734,-3.3713,-3.3684,-3.3616,-3.3613,-3.3584,-3.3575,-3.3567,-3.3559,-3.3523,-3.351,-3.3647,-3.3647,-3.3647,0,0,-3.3881,-3.3873,-3.3851,-3.3816,-3.3805,-3.377,-3.3815,-3.3776,-3.375,-3.3783,-3.3732,-3.3726,-3.3708,-3.3647,-3.362,-3.3639,-3.3521,-3.3559,-3.3553,-3.3549,-3.3515,-3.3502,-3.3491,-3.3643,-3.3643,-3.3644,0,0,-3.3793,-3.3784,-3.3737,-3.3725,-3.3708,-3.3711,-3.37,-3.3687,-3.3685,-3.3635,-3.3659,-3.3629,-3.3575,-3.3561,-3.3547,-3.3456,-3.3474,-3.3446,-3.3395,-3.3359,-3.3348,-3.3339,-3.3305,-3.3293,-3.3439,-3.3439,-3.3439,0,-3.3746,-3.3696,-3.371,-3.367,-3.3654,-3.3684,-3.3636,-3.3624,-3.3598,-3.3586,-3.3609,-3.3543,-3.3533,-3.3469,-3.3447,-3.3435,-3.3422,-3.3447,-3.3349,-3.334,-3.3331,-3.3299,-3.3287,-3.3435,-3.3436,-3.3436,-3.3437,0,-3.3639,-3.3604,-3.3568,-3.3543,-3.3524,-3.348,-3.3488,-3.3466,-3.3478,-3.3478,-3.3427,-3.3417,-3.3386,-3.3372,-3.3383,-3.331,-3.3323,-3.3347,-3.3387,-3.3314,-3.3285,-3.3273,-3.3431,-3.3432,-3.3433,-3.3434,0,0,-3.3514,-3.3501,-3.3487,-3.3476,-3.3461,-3.3434,-3.3392,-3.3364,-3.3345,-3.3327,-3.3291,-3.3247,-3.327,-3.3254,-3.3263,-3.3233,-3.3161,-3.3261,-3.3261,-3.3241,-3.3079,-3.3059,-3.3045,-3.3174,-3.3172,-3.317,-3.308,0,-3.3425,-3.3353,-3.3366,-3.3295,-3.3263,-3.3292,-3.3256,-3.3242,-3.3243,-3.3215,-3.3215,-3.3183,-3.3216,-3.3206,-3.3178,-3.3175,-3.3128,-3.3182,-3.314,-3.3138,-3.3141,-3.303,-3.3008,-3.2924,-3.3069,-3.3067,-3.3066,0,-3.331,-3.3289,-3.3215,-3.3206,-3.3193,-3.316,-3.3136,-3.3109,-3.3095,-3.3097,-3.3081,-3.3097,-3.3055,-3.3098,-3.304,-3.3077,-3.3061,-3.3058,-3.3055,-3.3049,-3.3096,-3.3019,-3.2897,-3.2884,-3.3048,-3.3049,-3.3051,0,-3.3224,-3.3178,-3.3128,-3.3119,-3.3107,-3.3083,-3.3077,-3.3066,-3.3048,-3.3027,-3.3016,-3.299,-3.2975,-3.2955,-3.2964,-3.2994,-3.2904,-3.2948,-3.2904,-3.2904,-3.2881,-3.2882,-3.2753,-3.2875,-3.2875,-3.2875,-3.2875,0,-3.3121,-3.3075,-3.309,-3.3059,-3.3008,-3.3024,-3.2973,-3.2971,-3.2961,-3.293,-3.2954,-3.2924,-3.2939,-3.2911,-3.2918,-3.2869,-3.2862,-3.2862,-3.2864,-3.2859,-3.2858,-3.2846,-3.2852,-3.2872,-3.2873,-3.2873,-3.2874,0,-3.3016,-3.3024,-3.2972,-3.2966,-3.2964,-3.2927,-3.2922,-3.2893,-3.2896,-3.2857,-3.2848,-3.2853,-3.2821,-3.2829,-3.2793,-3.2798,-3.2736,-3.2746,-3.274,-3.2742,-3.2698,-3.2701,-3.2554,-3.2536,-3.2671,-3.267,-3.2669,0,-3.2949,-3.2914,-3.2905,-3.2887,-3.2879,-3.2849,-3.2832,-3.2847,-3.2828,-3.2811,-3.2784,-3.2755,-3.2731,-3.2679,-3.2678,-3.2652,-3.266,-3.2611,-3.2656,-3.2652,-3.2658,-3.2659,-3.2655,-3.2601,-3.2599,-3.2598,-3.2597,0,-3.2827,-3.2834,-3.2809,-3.2785,-3.2764,-3.2746,-3.273,-3.2714,-3.2728,-3.2706,-3.2674,-3.2656,-3.2621,-3.2591,-3.2567,-3.2561,-3.258,-3.2584,-3.2572,-3.2564,-3.2562,-3.2561,-3.2714,-3.2586,-3.2587,-3.2588,-3.2588,-3.2589,-3.2738,-3.2708,-3.2698,-3.2669,-3.266,-3.2645,-3.2618,-3.2619,-3.2592,-3.2565,-3.2577,-3.254,-3.2528,-3.2498,-3.2489,-3.246,-3.2479,-3.2462,-3.2457,-3.2452,-3.2446,-3.2569,-3.2456,-3.2457,-3.2457,-3.2457,-3.2458,0,-3.2616,-3.2612,-3.2586,-3.2564,-3.2541,-3.2565,-3.2549,-3.2528,-3.2496,-3.2484,-3.2461,-3.2425,-3.2397,-3.2396,-3.2369,-3.2346,-3.2355,-3.2339,-3.2339,-3.2337,-3.2432,-3.2444,-3.2332,-3.2332,-3.2332,-3.2332,-3.2332,-3.2332,-3.255,-3.2502,-3.2507,-3.2455,-3.2451,-3.2415,-3.2404,-3.2391,-3.2382,-3.234,-3.2317,-3.2317,-3.231,-3.2283,-3.2259,-3.2259,-3.2247,-3.2227,-3.2231,-3.2318,-3.2331,-3.2343,-3.2354,-3.2225,-3.2225,-3.2139,-3.2138,-3.2137]}]]